ARIANE 42P DEB, 47107

Orbit data source: Space-Track

ARIANE 42P DEB, 47107 is space debris in LEO originally from a launch on Mon, 10 Aug 1992 UTC launched from the French Guiana (FRGUI). Debris objects in space refer to the collection of defunct objects orbiting the Earth. Examples of debris include non-operational satellites, rocket bodies, and fragments generated from explosions, collisions, or faulty payload assembly.

Loading next visibility...
Identifier
47107, 1992-052N
Orbit
LEO
Last TLE update
17 hours ago
Origin
Manufacturer
ArianeGroup
Mission
Spacecraft
Bus & Motor
Unknown
Mass
Unknown
Launch date (UTC)
1992-08-10 (33 years ago)
Launch vehicle
Unknown
Launch site
French Guiana (FRGUI)
Object type
Payload
Rocket body
Debris
Shape & HBR
Unknown
Radar Cross Section
Small (<0.1 m²)

Expand to show TLE details & history

TLE from 17 hours ago
0 ARIANE 42P DEB
1 47107U 92052N   25132.80445362  .00001634  00000-0  70673-2 0  9991
2 47107  66.0712  36.9916 0053771 119.4808 241.1588 12.83371543255425
Epoch: 2025-05-12T19:18Z
Definitive object data (Epoch: 2025-05-12T19:18:24.792Z)
Latitude
-0.00001°
Longitude
-123.42399°
Altitude
1,350.019 km
Speed
7.174 km/s
True Right ascension
02h 27m 57s
True Declination
0° 00' 00"
Sunlit
Object was in daylight at TLE epoch
Visualization TLE readout
Latitude
-46.87598°
Longitude
-152.98947°
Altitude
1,386.16 km
Speed
7.147 km/s
Apparent Right ascension
04h 08m 16s
Apparent Declination
-61° 07' 30"
Sunlit
Object is in daylight
Visualization observer readout
Local Sidereal Time
20:17:14
Azimuth
140.979° SSE
Elevation
-47.256°
Doppler factor
1
Orbital elements
Apogee altitude
1,367.93 km
Perigee altitude
1,285.073 km
Semi-major axis
7,704.639 km
Eccentricity
0.0053771
Inclination
66.0712°
RAAN
36.9916°
Arg. of periapsis
119.4808°
True anomaly
240.62081°
Mean anomaly
241.1588°
Eccentric anomaly
240.88963°
Mean motion
3.20933 °/min
BSTAR
0.0070673
Orbital period
112.17 mins
Loading maneuver chart data...
Loading SW <> Apogee altitude chart data...
Loading historical data...
Loading historical data...
Loading historical data...
Loading historical data...
Loading historical data...
Loading historical data...
Loading historical data...

ARIANE 42P DEB Visibility forecast

Observer location: undefined°, undefined°

Span
Click to sort rows by Start time (UTC) header in descending order
Start Az.
Max El. time (UTC)
Max El. Az.
Max El.
End time (UTC)
End Az.
12 mins2025-05-13 17:50:44.587Z160.054° S2025-05-13 17:56:44.587Z108.856° ESE26.004°2025-05-13 18:02:44.587Z54.029° ENE
14 mins2025-05-13 19:45:44.587Z227.44° WSW2025-05-13 19:51:44.587Z291.749° WNW41.217°2025-05-13 19:59:44.587Z24.406° NE
8 mins2025-05-13 21:45:44.587Z296.483° NW2025-05-13 21:49:44.587Z329.789° NNW16.711°2025-05-13 21:53:44.587Z2.517° NNE
8 mins2025-05-14 01:45:44.587Z0.184° NNE2025-05-14 01:49:44.587Z33.682° NE16.15°2025-05-14 01:53:44.587Z65.895° ENE
13 mins2025-05-14 03:40:44.587Z339.119° N2025-05-14 03:46:44.587Z48.39° ENE40.769°2025-05-14 03:53:44.587Z132.455° SE
11 mins2025-05-14 05:36:44.587Z304.472° NW2025-05-14 05:41:44.587Z258.359° W26.192°2025-05-14 05:47:44.587Z201.475° SSW
|